Weather History for Melbourne, FL

Change the Weather History Date:

Thursday, January 17, 2013

  Actual Average Record
Temperature  
Mean Temperature 21 °C 16 °C  
Max Temperature 29 °C 22 °C 28 °C (1943)
Min Temperature 12 °C 9 °C 0 °C (1959)
Degree Days  
Heating Degree Days 0 6  
Month to date heating degree days 1 102  
Since 1 July heating degree days 149 281  
Cooling Degree Days 4 1  
Month to date cooling degree days 73 20  
Year to date cooling degree days 73 20  
Growing Degree Days 18 (Base 50)    
Moisture  
Dew Point 16 °C    
Average Humidity 72    
Maximum Humidity 93    
Minimum Humidity 51    
Precipitation  
Precipitation 0.00 mm 1.78 mm 1.68 mm (2008)
Month to date precipitation 1.36 1.20  
Year to date precipitation 1.36 1.20  
Sea Level Pressure  
Sea Level Pressure 1017 hPa    
Wind  
Wind Speed 20 km/h (WSW)    
Max Wind Speed 47 km/h    
Max Gust Speed 56 km/h    
Visibility 16 kilometers    
Events      
T = Trace of Precipitation, MM = Missing Value Source: NWS Daily Summary

Daily Weather History Graph

Daily Weather History Graph

Search for Another Location

Airport:

Trip Planner

Search our weather history database for the weather conditions in past years. The results will help you decide how hot, cold, wet, or windy it might be!

Date:

Astronomy

Jan. 17, 2013 Rise Set
Actual Time 7:15 AM EST 5:50 PM EST
Civil Twilight 6:49 AM EST 6:15 PM EST
Nautical Twilight 6:21 AM EST 6:44 PM EST
Astronomical Twilight 5:52 AM EST 7:12 PM EST
Moon 10:58 AM EST (1/17) No Moon Set
Length of Visible Light 11h 26m
Length of Day
10h 35m
Waxing Crescent, 37% of the Moon is Illuminated
Jan 17
Waxing Crescent
Jan 18
First Quarter
Jan 26
Full
Feb 3
Last Quarter
Feb 10
New

Hourly Weather History & Observations

Time (EST) Temp. Heat Index Dew Point Humidity Pressure Visibility Wind Dir Wind Speed Gust Speed Precip Events Conditions
12:53 AM 21.7 °C - 19.4 °C 87% 1017.2 hPa 16.1 km South 14.8 km/h / 4.1 m/s - N/A   Mostly Cloudy
1:53 AM 21.1 °C - 19.4 °C 90% 1017.1 hPa 16.1 km South 13.0 km/h / 3.6 m/s - N/A   Partly Cloudy
2:53 AM 20.6 °C - 19.4 °C 93% 1017.0 hPa 16.1 km SSW 14.8 km/h / 4.1 m/s - N/A   Overcast
3:53 AM 20.0 °C - 18.9 °C 93% 1016.8 hPa 16.1 km SW 9.3 km/h / 2.6 m/s - N/A   Mostly Cloudy
4:53 AM 20.0 °C - 17.8 °C 87% 1016.9 hPa 16.1 km SW 9.3 km/h / 2.6 m/s - N/A   Mostly Cloudy
5:53 AM 18.9 °C - 17.2 °C 90% 1016.9 hPa 16.1 km West 5.6 km/h / 1.5 m/s - N/A   Partly Cloudy
7:53 AM 18.3 °C - 17.2 °C 93% 1017.7 hPa 12.9 km Calm Calm - N/A   Scattered Clouds
8:53 AM 20.6 °C - 18.9 °C 90% 1018.0 hPa 16.1 km South 9.3 km/h / 2.6 m/s - N/A   Partly Cloudy
8:59 AM 21.0 °C - 19.0 °C 88% 1018.2 hPa 16.1 km SSW 11.1 km/h / 3.1 m/s - N/A   Mostly Cloudy
9:53 AM 22.8 °C - 20.0 °C 84% 1018.2 hPa 16.1 km SSW 11.1 km/h / 3.1 m/s - N/A   Mostly Cloudy
10:45 AM 26.0 °C - 20.0 °C 69% 1017.5 hPa 16.1 km SSW 20.4 km/h / 5.7 m/s - N/A   Mostly Cloudy
10:53 AM 25.6 °C - 19.4 °C 68% 1017.3 hPa 16.1 km SSW 25.9 km/h / 7.2 m/s 33.3 km/h / 9.3 m/s N/A   Mostly Cloudy
11:53 AM 26.7 °C 27.8 °C 18.9 °C 62% 1016.3 hPa 16.1 km SSW 20.4 km/h / 5.7 m/s 37.0 km/h / 10.3 m/s N/A   Mostly Cloudy
12:53 PM 27.2 °C 28.0 °C 17.8 °C 56% 1015.0 hPa 16.1 km SSW 25.9 km/h / 7.2 m/s - N/A   Mostly Cloudy
1:53 PM 28.3 °C 28.9 °C 17.2 °C 51% 1013.7 hPa 16.1 km SW 25.9 km/h / 7.2 m/s 38.9 km/h / 10.8 m/s N/A   Partly Cloudy
2:53 PM 27.2 °C 27.6 °C 16.1 °C 50% 1013.0 hPa 16.1 km WSW 22.2 km/h / 6.2 m/s - N/A   Mostly Cloudy
3:08 PM 25.0 °C - 18.0 °C 65% 1013.4 hPa 14.5 km West 38.9 km/h / 10.8 m/s 50.0 km/h / 13.9 m/s N/A   Overcast
3:53 PM 23.3 °C - 17.2 °C 68% 1014.4 hPa 16.1 km West 33.3 km/h / 9.3 m/s 46.3 km/h / 12.9 m/s N/A   Overcast
4:12 PM 22.0 °C - 17.0 °C 73% 1014.8 hPa 16.1 km West 37.0 km/h / 10.3 m/s 53.7 km/h / 14.9 m/s N/A   Mostly Cloudy
4:53 PM 18.3 °C - 14.4 °C 78% 1015.8 hPa 16.1 km West 37.0 km/h / 10.3 m/s 55.6 km/h / 15.4 m/s N/A   Overcast
5:00 PM 18.0 °C - 14.0 °C 77% 1016.1 hPa 16.1 km WNW 33.3 km/h / 9.3 m/s 48.2 km/h / 13.4 m/s N/A   Overcast
5:25 PM 17.0 °C - 13.0 °C 77% 1016.5 hPa 16.1 km West 37.0 km/h / 10.3 m/s 51.9 km/h / 14.4 m/s N/A   Mostly Cloudy
5:53 PM 16.7 °C - 12.2 °C 75% 1016.7 hPa 16.1 km West 37.0 km/h / 10.3 m/s 51.9 km/h / 14.4 m/s N/A   Mostly Cloudy
6:53 PM 15.6 °C - 11.1 °C 75% 1017.5 hPa 16.1 km West 27.8 km/h / 7.7 m/s 44.4 km/h / 12.3 m/s N/A   Clear
7:53 PM 15.6 °C - 10.6 °C 72% 1018.0 hPa 16.1 km West 25.9 km/h / 7.2 m/s - N/A   Scattered Clouds
8:53 PM 14.4 °C - 9.4 °C 72% 1018.3 hPa 16.1 km West 25.9 km/h / 7.2 m/s - N/A   Clear
9:53 PM 13.9 °C - 8.9 °C 72% 1018.5 hPa 16.1 km West 27.8 km/h / 7.7 m/s - N/A   Mostly Cloudy
10:53 PM 12.8 °C - 8.3 °C 74% 1018.8 hPa 16.1 km West 29.6 km/h / 8.2 m/s - N/A   Clear
11:53 PM 12.2 °C - 7.8 °C 75% 1018.9 hPa 16.1 km West 22.2 km/h / 6.2 m/s - N/A   Clear